Lapse_Rate
6.3 6.3 6.3 6.4 6.4 6.4 6.4 6.5 6.6 6.6 6.4 6.6 6.4 6.3 6.6 6.9 6.8 7.0 7.0 6.9 6.6 6.4 6.6 6.5 6.0 5.7 5.6 5.6 5.6 5.5 5.0 5.6 6.0 6.1 5.7 5.3 5.2 5.5 5.6 5.6 5.3 5.5 5.0 5.4 5.3
6.4 6.5 6.7 6.9 7.0 7.1 7.0 7.0 7.1 7.1 7.2 7.0 7.0 6.7 6.6 6.7 6.9 7.1 7.1 7.1 7.0 6.7 6.7 6.7 6.1 5.5 5.5 5.5 5.5 5.4 5.2 5.6 6.1 5.5 5.6 5.4 5.4 5.8 5.9 5.7 5.6 5.3 4.8 5.0 5.4
6.7 6.9 7.0 7.0 7.0 7.0 7.0 7.1 6.9 6.9 6.9 7.0 6.8 6.8 6.8 6.8 7.0 7.1 7.3 7.3 7.1 6.8 6.7 6.5 6.0 5.7 5.3 5.3 5.5 5.7 5.5 5.9 5.7 5.4 5.6 5.4 5.5 5.5 6.0 5.7 5.3 5.1 5.1 5.0 5.5
6.8 6.9 6.8 6.8 6.9 6.8 6.8 6.8 6.7 6.8 6.7 6.7 6.7 6.6 6.6 6.7 6.8 7.1 7.0 7.3 7.1 6.9 6.6 6.4 5.9 5.7 5.5 5.2 5.8 5.5 5.8 5.8 5.8 5.2 5.6 5.7 5.5 5.4 5.6 6.1 5.3 4.8 5.1 5.3 5.5
6.5 6.4 6.5 6.5 6.5 6.6 6.7 6.7 6.7 6.6 6.6 6.6 6.5 6.5 6.5 6.7 7.3 7.0 7.1 7.1 7.0 6.8 6.4 6.2 5.9 5.4 5.3 5.3 5.2 4.9 5.4 5.6 5.4 5.2 5.7 5.8 5.5 5.5 5.3 6.1 5.4 4.6 4.8 5.0 5.3
6.1 6.1 6.2 6.3 6.5 6.6 6.6 6.7 6.8 6.8 6.8 6.7 6.6 6.5 6.6 7.1 7.1 7.2 7.2 7.4 7.1 7.0 6.6 6.1 6.1 5.5 5.3 5.3 5.0 4.9 4.9 5.1 5.5 5.2 5.3 5.7 5.9 5.1 6.3 6.0 5.6 4.8 5.0 5.1 5.0
6.0 6.1 6.2 6.4 6.9 7.2 7.5 7.6 7.6 7.5 7.4 7.2 7.0 6.8 6.7 7.7 6.8 7.1 7.2 7.3 7.2 7.0 6.8 6.3 5.9 5.8 5.3 5.3 5.0 5.1 5.1 5.4 5.3 5.6 5.4 5.5 5.7 6.1 6.1 5.5 5.6 5.3 4.8 4.9 5.1
6.2 6.5 7.0 7.6 7.8 7.8 7.8 7.9 7.9 8.0 7.8 7.6 7.4 7.0 7.3 7.6 7.1 7.0 7.2 7.4 7.2 6.9 6.7 6.5 6.4 5.7 5.3 5.2 5.2 5.3 5.0 4.9 6.2 6.0 5.5 5.4 6.1 6.0 6.1 5.8 5.8 5.6 5.1 5.1 5.2
6.5 7.0 7.5 7.4 7.2 7.1 7.0 7.0 7.1 7.3 7.5 7.6 7.4 7.0 7.7 7.9 7.7 7.3 7.2 6.9 6.6 6.6 6.4 6.1 5.7 5.5 5.4 5.2 5.0 4.9 4.9 5.6 5.9 5.9 5.7 5.4 5.6 5.8 5.9 5.7 5.6 5.3 5.2 5.1 4.9
6.8 7.1 6.8 6.7 6.6 6.5 6.5 6.4 6.4 6.3 6.5 6.5 6.2 6.0 7.4 7.7 7.6 7.4 7.3 6.7 6.6 6.7 6.2 5.8 5.7 5.6 5.4 5.3 5.2 6.0 5.3 5.6 5.4 5.7 5.7 5.6 5.6 5.6 5.7 5.6 5.5 5.2 5.0 5.1 5.1
6.7 6.6 6.5 6.6 6.4 6.2 6.2 6.3 6.5 6.6 5.6 5.7 5.8 5.7 6.4 6.9 6.9 7.0 7.1 6.5 6.3 6.2 6.2 6.2 5.9 5.8 6.6 6.2 6.1 5.9 5.6 5.3 6.1 5.9 5.9 5.8 5.6 5.9 5.8 5.5 5.4 5.0 5.2 5.2 5.1
6.4 6.4 6.5 6.4 6.3 6.2 5.7 6.1 6.2 5.5 5.1 7.0 6.1 6.0 6.1 6.0 6.0 6.1 6.7 6.4 6.3 6.6 6.5 6.1 6.1 6.5 6.3 5.9 5.6 6.0 5.7 5.8 6.6 6.1 5.7 5.5 5.5 5.7 6.1 5.8 5.5 5.5 5.5 5.6 5.3
6.2 6.2 6.3 6.3 6.3 6.2 6.1 6.2 6.3 6.0 5.6 7.4 7.4 6.5 6.7 6.4 6.2 5.9 6.4 6.6 6.6 6.2 6.5 6.3 6.8 6.7 6.3 6.0 5.8 6.3 6.2 6.4 6.5 6.0 6.0 6.0 5.9 6.3 6.6 6.5 6.3 5.8 5.5 5.3 5.2
6.2 6.1 6.3 6.2 6.3 6.2 6.2 6.0 6.0 5.5 5.5 7.0 6.9 6.9 7.2 6.7 6.2 5.9 5.8 6.8 6.2 6.2 6.4 6.3 6.4 6.5 6.4 6.3 6.5 6.4 6.4 6.5 6.4 6.4 6.2 5.9 4.7 6.4 6.6 6.5 6.3 6.2 6.1 5.8 5.5
6.2 6.1 6.1 5.8 5.9 6.1 6.2 5.9 5.4 5.4 4.3 6.8 7.0 7.5 7.4 7.0 6.5 6.7 6.1 6.4 6.5 6.4 6.4 6.6 6.7 6.5 6.3 6.3 6.4 6.3 6.5 6.4 6.4 6.3 5.9 5.9 5.7 6.0 6.7 6.7 6.5 6.2 6.1 5.9 5.6
6.2 6.2 6.0 5.9 6.0 6.2 6.2 5.5 5.3 5.6 4.6 7.5 7.7 7.6 7.7 7.0 6.7 7.1 6.9 6.1 6.5 6.5 6.6 6.5 6.3 6.4 6.2 6.2 6.6 6.4 6.4 6.3 6.1 5.8 4.1 6.0 6.2 6.2 6.3 6.3 6.4 6.4 6.1 5.7 5.6
6.1 6.0 5.7 5.7 6.0 6.3 6.2 5.6 6.0 6.1 7.8 7.6 7.3 7.1 7.3 7.4 7.2 7.4 7.4 7.1 6.8 6.5 6.7 6.4 6.3 6.5 6.5 6.4 6.4 6.4 6.5 5.2 5.2 5.4 3.9 6.0 5.6 6.3 6.0 6.3 6.4 6.2 6.0 5.6 5.3
6.0 5.9 5.6 5.6 6.3 6.6 6.2 6.7 6.5 7.3 7.4 7.3 7.2 7.2 7.1 7.4 7.3 7.2 7.4 7.3 6.9 7.0 6.9 6.7 6.6 6.4 6.2 6.3 6.5 6.4 6.5 6.0 5.1 4.1 5.4 5.7 5.5 6.4 6.2 6.3 6.3 6.1 5.9 5.8 5.7
6.0 5.9 5.8 6.1 6.3 6.3 6.4 6.9 7.2 7.6 7.2 7.1 7.5 7.3 7.3 7.3 7.4 7.2 6.8 7.0 6.9 6.9 7.2 6.7 5.9 6.2 6.4 6.1 6.2 6.0 5.9 6.2 6.1 5.9 5.3 6.3 5.9 6.1 6.1 6.1 6.2 6.0 5.8 5.9 6.1
5.8 5.8 6.0 6.3 6.5 6.6 6.9 6.7 7.3 7.5 7.4 7.6 7.3 7.3 7.1 7.1 7.1 7.2 6.8 6.8 7.0 7.1 6.9 6.9 6.3 6.1 6.3 6.1 6.1 6.1 6.1 5.9 6.1 3.6 4.0 5.9 6.3 6.7 6.5 6.4 6.3 6.1 6.1 6.1 6.1
5.6 5.8 5.9 6.2 6.2 6.8 7.0 7.1 7.4 7.5 7.3 7.4 7.2 7.1 7.1 6.7 6.7 7.1 6.4 6.8 7.1 7.0 7.0 7.0 6.6 5.8 5.8 5.9 6.0 5.9 6.1 6.2 6.2 5.8 3.9 4.4 6.3 6.8 6.7 6.6 6.4 6.4 6.3 6.3 6.2
5.6 5.9 5.8 6.0 6.4 6.7 7.1 6.9 7.4 7.3 7.3 7.4 7.2 7.0 7.2 7.0 7.0 6.9 6.8 6.9 6.8 6.7 6.6 6.7 6.2 6.2 6.0 6.1 6.0 6.0 6.2 6.3 6.3 5.7 5.9 5.4 5.9 6.6 6.5 6.4 6.4 6.3 6.3 6.2 6.0
5.4 6.1 6.2 6.3 6.4 7.0 7.5 7.2 7.4 7.4 7.4 7.4 7.4 7.1 7.2 7.3 7.3 7.2 7.2 6.9 6.9 6.6 6.4 6.5 5.9 6.0 5.7 5.9 5.8 5.9 6.1 6.2 6.1 5.9 5.7 5.3 6.2 6.5 6.3 6.1 6.1 6.0 6.0 5.9 5.5
5.3 5.8 6.5 6.5 6.3 6.9 7.3 7.3 7.4 7.5 7.4 7.4 7.3 7.3 7.3 7.1 7.1 6.9 6.8 6.7 6.5 6.5 6.5 6.3 6.1 5.8 5.2 5.6 5.7 5.9 6.1 6.1 6.0 5.7 5.9 6.0 6.3 6.2 6.2 6.2 6.0 5.9 5.6 5.2 5.2
5.4 5.6 6.1 6.4 6.9 7.5 7.3 7.3 7.3 7.2 7.2 7.4 7.2 7.2 7.1 7.2 6.9 6.8 6.6 6.7 6.6 6.4 6.3 6.3 6.2 5.9 5.8 5.9 5.8 6.1 6.2 5.8 5.9 6.0 5.5 6.2 6.1 6.1 6.0 5.7 5.6 5.3 5.2 5.0 4.8
5.6 5.9 6.5 6.5 6.7 7.4 7.1 7.0 6.9 7.3 7.3 7.2 7.2 7.2 7.0 7.1 7.0 6.6 6.4 6.5 6.3 6.2 6.1 6.3 5.9 5.8 6.2 6.2 6.1 5.8 5.9 5.8 5.4 5.1 5.1 5.3 5.8 6.1 5.6 5.4 4.9 4.7 4.6 4.6 4.8
5.9 6.4 6.5 6.8 7.0 7.2 7.0 7.0 7.1 7.2 7.4 7.4 7.3 7.3 7.0 6.9 6.8 6.5 6.5 6.3 6.1 6.0 6.0 5.9 5.8 5.7 5.7 5.6 5.5 5.7 5.9 5.7 5.6 5.3 5.1 5.0 5.6 5.1 4.9 4.5 4.4 4.4 4.4 4.6 4.7
Wind_Speed
21 22 22 23 23 24 24 24 23 23 23 23 23 23 21 20 22 6 8 11 11 14 8 2 3 5 3 2 2 2 3 3 4 2 3 4 2 3 2 5 4 4 3 4 12
22 22 22 22 23 24 25 26 25 24 22 23 23 22 23 22 14 12 14 11 13 16 6 7 5 6 2 4 3 4 4 8 5 1 2 3 3 2 3 3 3 5 6 10 11
23 22 22 22 23 23 24 25 25 25 25 23 25 23 22 21 7 6 1 19 15 11 4 3 4 6 5 3 5 6 5 5 1 4 4 2 4 2 5 1 3 5 10 10 10
27 28 27 25 24 24 24 26 27 25 24 23 23 23 19 5 6 4 12 16 15 9 2 2 3 5 5 7 6 4 7 7 7 2 3 4 4 4 3 7 7 6 14 8 8
26 27 27 28 29 30 27 26 27 28 26 24 22 23 6 6 9 8 14 13 8 7 6 6 6 5 5 5 4 6 6 7 5 4 4 3 5 5 6 6 4 9 14 13 10
27 28 29 27 27 29 29 31 30 28 29 26 23 23 3 13 8 16 10 7 7 6 6 6 5 6 4 6 5 2 1 3 3 4 4 5 5 4 5 10 9 9 10 12 12
26 28 29 31 30 31 33 32 32 32 31 28 24 12 10 20 2 6 10 7 5 7 5 4 5 4 3 2 4 4 4 6 4 5 6 5 6 9 11 5 7 8 9 9 10
28 28 29 30 29 32 34 34 34 33 35 28 25 11 9 7 25 10 6 5 5 5 5 6 8 3 2 1 5 2 2 1 6 8 6 9 7 7 9 13 8 7 5 8 6
28 29 29 31 30 33 35 36 37 38 34 26 11 4 8 5 9 12 7 7 5 4 4 5 5 4 2 4 3 3 4 7 6 3 6 5 5 3 4 8 7 6 5 7 7
28 29 31 31 32 34 35 35 38 30 11 7 9 6 6 10 4 6 6 8 5 7 4 3 3 4 2 4 6 7 4 3 5 5 5 6 6 6 3 6 9 9 7 6 8
30 28 30 32 32 36 24 6 6 5 6 8 11 8 12 3 3 5 7 7 6 5 6 4 4 7 12 11 6 4 2 4 4 3 4 7 7 10 7 6 6 5 7 5 6
29 30 30 31 32 34 9 7 7 9 12 15 19 20 24 16 6 3 10 7 6 5 5 3 9 9 10 10 11 10 6 3 4 1 2 5 10 9 8 2 6 8 6 6 4
31 30 30 30 33 8 12 6 6 7 5 11 12 9 15 10 16 9 13 7 6 7 7 6 5 15 12 7 5 5 5 3 6 2 3 1 7 4 3 7 8 6 4 4 5
30 30 30 30 10 7 8 12 15 2 4 7 5 5 5 10 12 10 13 11 5 14 7 9 11 4 5 4 5 4 1 5 4 4 3 3 4 5 4 3 5 6 6 6 4
30 31 32 25 7 4 9 13 10 2 4 4 2 4 3 8 0 15 17 12 8 6 6 6 5 8 5 3 5 4 6 5 3 3 3 3 3 6 6 3 5 6 7 6 4
31 33 34 6 2 6 13 8 2 2 5 5 4 6 2 7 4 4 6 6 4 2 6 3 2 4 3 4 5 8 5 6 5 3 2 7 6 4 4 6 6 4 5 6 4
33 34 20 8 4 10 5 3 1 2 7 9 6 10 7 6 3 3 5 6 6 4 3 4 1 3 4 6 4 5 6 2 1 1 5 4 3 7 2 3 7 10 7 4 2
36 28 10 2 10 2 3 4 3 5 4 2 4 7 4 7 2 3 7 5 3 5 3 5 4 4 3 4 6 5 6 5 6 3 2 4 4 5 4 7 8 4 4 3 3
33 3 4 4 11 1 3 3 4 4 6 7 6 4 1 2 2 3 4 6 3 4 4 4 2 2 6 4 5 4 1 4 5 2 3 4 0 4 4 4 4 4 3 3 5
7 4 3 7 9 1 2 3 4 8 9 5 3 4 4 3 4 6 6 2 5 3 5 1 5 2 2 3 4 4 4 3 3 2 3 4 4 4 6 7 5 2 5 5 4
3 4 3 10 1 1 1 4 5 9 6 5 2 3 3 4 10 3 4 5 4 1 6 3 3 2 3 3 6 1 2 3 4 3 4 1 4 5 7 7 7 6 5 5 5
3 3 4 4 4 1 2 10 8 6 4 4 4 4 3 4 5 5 5 5 8 2 3 4 4 3 5 1 2 3 6 5 4 5 2 3 5 1 6 7 5 5 5 4 4
4 3 3 4 4 4 6 7 4 7 5 3 4 1 1 1 3 4 6 6 10 5 2 2 2 1 1 4 4 1 3 4 5 3 3 4 4 4 3 3 5 4 4 4 4
2 4 4 3 0 3 8 4 7 6 2 5 3 4 4 4 2 3 3 4 5 4 10 4 2 4 4 5 3 1 3 3 5 3 3 5 2 4 6 7 4 2 2 4 4
1 3 1 4 5 9 8 2 11 7 6 7 6 7 2 3 4 3 3 3 3 5 4 4 2 4 5 7 3 4 4 3 4 5 5 4 4 5 6 6 3 2 2 3 3
0 2 4 4 6 5 3 4 9 8 3 5 4 7 6 4 2 2 5 3 3 3 2 3 0 2 4 3 5 5 8 8 7 9 8 9 16 4 3 5 3 2 2 3 4
2 1 1 5 4 3 3 6 12 14 0 2 6 1 3 4 6 4 4 4 5 6 3 3 2 3 4 4 4 5 6 5 5 3 6 9 6 3 3 5 4 1 3 4 5
Wind_Direction
358 356 355 352 349 346 345 342 342 341 339 334 331 326 324 315 316 279 245 223 214 181 162 135 194 241 289 248 165 82 97 217 245 261 296 342 61 19 161 93 54 40 119 184 139
354 351 350 348 343 342 337 335 335 336 336 332 329 326 324 316 307 265 244 235 172 167 147 167 197 205 224 211 192 138 168 209 217 73 115 19 70 156 86 92 99 69 60 115 128
347 345 342 342 338 336 332 328 329 330 330 330 327 326 322 322 299 244 115 182 170 173 160 153 200 175 215 200 206 192 204 239 145 117 89 29 3 355 111 293 155 168 166 151 149
352 350 344 337 334 329 329 326 322 321 322 323 324 319 320 288 274 189 163 158 162 163 126 217 222 170 198 218 212 222 227 240 293 127 126 143 337 323 203 213 139 163 165 151 159
344 340 336 332 328 329 323 321 320 318 315 317 319 310 336 265 246 197 171 168 153 145 182 201 192 177 210 212 239 224 233 239 255 197 184 154 231 230 274 258 306 130 159 171 172
346 341 344 339 337 335 328 323 315 313 311 309 311 305 199 261 255 163 157 163 188 174 189 196 204 194 236 225 181 328 151 290 294 285 261 195 234 168 246 239 248 153 181 178 179
346 344 344 337 334 332 324 316 312 310 304 301 299 288 239 240 241 196 171 191 194 185 195 215 128 118 16 328 324 343 337 333 283 252 233 167 277 230 234 197 188 179 167 186 188
344 343 340 339 336 330 321 314 307 298 291 294 292 262 248 248 233 237 192 200 197 177 115 112 94 97 146 24 359 332 31 316 270 233 224 130 262 266 303 185 186 183 193 175 200
342 344 342 338 332 328 325 316 301 289 286 284 276 186 258 244 222 204 167 166 173 124 107 105 87 162 101 114 5 256 228 214 298 185 142 155 242 286 81 122 166 198 204 162 125
344 343 340 336 332 325 325 317 299 295 280 231 235 208 268 245 180 168 174 151 150 111 81 98 117 142 111 131 207 211 211 258 232 229 149 185 249 237 237 162 190 201 137 103 110
344 339 337 335 329 324 328 328 358 343 14 295 299 257 317 199 62 149 177 145 128 128 155 208 147 191 208 211 215 218 202 229 270 245 125 204 223 248 241 204 215 84 119 91 90
341 338 336 333 330 323 333 333 1 316 300 270 262 255 268 278 298 239 143 153 163 167 185 158 221 214 212 219 228 232 228 227 311 129 100 242 247 248 255 171 152 135 123 142 108
338 333 332 333 327 331 337 301 332 3 279 287 242 232 223 222 240 210 166 182 169 179 197 200 222 214 214 229 179 185 169 198 218 180 274 293 307 315 42 95 104 94 129 136 153
337 332 330 333 324 334 295 337 331 13 301 278 234 252 190 193 255 195 176 175 204 204 213 241 229 212 139 179 130 186 154 186 153 78 216 74 274 305 165 131 115 122 124 130 116
331 328 329 331 293 283 330 334 311 333 0 287 317 292 318 166 215 185 175 192 189 185 157 246 139 153 154 180 180 183 98 110 94 102 55 319 78 266 120 196 166 150 136 147 180
328 328 330 321 264 271 318 314 31 49 266 309 359 327 344 161 21 2 143 21 23 250 221 221 52 94 109 57 124 143 89 48 49 90 359 227 160 265 193 194 138 143 134 155 191
327 328 325 300 294 317 339 24 82 205 324 351 352 335 308 153 330 112 135 185 149 115 199 174 259 30 119 88 20 80 79 19 338 259 227 279 134 243 217 108 151 151 153 154 202
326 324 310 48 341 36 34 48 80 266 10 316 302 329 316 22 153 266 143 163 202 92 143 150 190 191 185 153 175 178 149 157 198 197 260 348 234 266 53 71 94 119 160 88 2
325 299 329 323 346 36 53 42 222 347 273 327 331 352 196 305 320 149 207 166 39 144 160 132 100 39 55 26 114 196 142 175 101 245 67 214 136 0 116 94 113 111 33 298 296
314 323 289 342 343 2 50 260 289 338 324 345 2 42 326 311 237 180 158 126 126 109 245 204 99 34 13 35 28 142 172 72 1 115 274 276 203 222 185 182 174 229 273 277 276
347 350 270 327 87 69 317 266 299 281 347 339 316 299 290 351 292 105 40 54 63 2 72 93 84 300 73 210 181 39 14 57 119 165 175 257 269 213 203 173 180 230 256 275 298
347 334 299 17 29 346 300 304 281 294 360 341 349 354 347 335 329 43 72 64 5 17 59 39 116 142 206 318 327 206 191 150 131 258 205 141 275 314 153 176 170 228 257 271 262
316 264 306 64 19 339 306 300 294 330 324 339 334 16 312 1 9 28 64 31 21 32 122 66 81 77 291 359 360 227 217 128 109 83 210 146 258 149 178 276 244 219 264 283 310
314 322 321 27 219 324 326 319 322 315 28 343 310 335 11 356 66 97 88 42 23 13 55 77 79 161 187 202 149 312 299 187 136 131 207 223 208 199 222 237 226 239 282 302 331
18 290 215 313 327 317 305 336 312 350 1 1 359 4 53 24 18 97 79 117 46 5 37 85 163 151 240 246 225 228 219 192 175 185 172 228 172 230 230 241 205 208 291 312 338
38 27 346 273 291 310 359 314 342 326 284 330 10 353 46 43 99 159 137 150 164 11 62 22 243 54 303 323 193 242 245 230 246 233 253 266 281 265 132 114 120 198 319 322 327
295 285 107 289 311 6 355 325 321 320 223 354 329 331 62 42 10 77 73 58 135 133 107 141 107 47 279 19 10 335 236 221 215 223 195 239 252 183 163 164 158 183 305 309 309